EW1296 Weather Reports


Display with metric or nautical units.
time (UTC)temp
F
wind
direction
speed
MPH
gust
MPH
rain 1hr
in
rain 24hr
in
rain mn
in
humidity
%
barometer
mb
20260831002019 78 248 1.0 4.0 0.00 0.00 0.00 79 1018.4
20260831001517 78 248 1.0 3.0 0.00 0.00 0.00 78 1018.3
20260831001018 79 248 1.0 4.0 0.00 0.00 0.00 78 1018.3
20260831000537 79 248 2.0 4.0 0.00 0.00 0.00 77 1018.2
20260831000018 79 248 3.0 5.0 0.00 0.00 0.00 77 1018.2
20260830235038 79 248 2.0 5.0 0.00 0.00 0.00 76 1018.1
20260830234518 79 248 1.0 3.0 0.00 0.00 0.00 76 1018.0
20260830234038 80 0.0 3.0 0.00 0.00 0.00 75 1017.9
20260830233517 80 248 1.0 2.0 0.00 0.00 0.00 75 1017.9
20260830233037 80 0.0 3.0 0.00 0.00 0.00 75 1017.9
20260830232537 80 0.0 2.0 0.00 0.00 0.00 75 1017.9
20260830232018 80 0.0 0.0 0.00 0.00 0.00 75 1017.9
20260830231517 80 0.0 2.0 0.00 0.00 0.00 75 1017.9
20260830231017 80 248 1.0 3.0 0.00 0.00 0.00 74 1017.9
20260830230517 80 248 2.0 4.0 0.00 0.00 0.00 74 1018.0
20260830230018 81 248 2.0 4.0 0.00 0.00 0.00 74 1017.9
20260830225517 81 248 1.0 4.0 0.00 0.00 0.00 73 1017.9
20260830225018 81 248 2.0 4.0 0.00 0.00 0.00 73 1017.9
20260830224518 81 248 2.0 4.0 0.00 0.00 0.00 72 1017.9
20260830224017 81 248 2.0 4.0 0.00 0.00 0.00 72 1018.1
20260830223518 82 248 1.0 3.0 0.00 0.00 0.00 72 1017.8
20260830223018 82 225 1.0 5.0 0.00 0.00 0.00 72 1018.0
20260830222517 82 225 2.0 4.0 0.00 0.00 0.00 71 1018.0
20260830222017 82 248 1.0 6.0 0.00 0.00 0.00 71 1018.0
20260830221517 82 45 2.0 5.0 0.00 0.00 0.00 71 1017.9
20260830221017 82 248 2.0 4.0 0.00 0.00 0.00 70 1018.1
20260830220518 82 248 2.0 5.0 0.00 0.00 0.00 70 1018.1
20260830220018 82 248 2.0 5.0 0.00 0.00 0.00 70 1018.1
20260830215518 82 248 1.0 3.0 0.00 0.00 0.00 70 1018.1
20260830215017 82 293 2.0 4.0 0.00 0.00 0.00 70 1018.0
20260830214518 82 225 2.0 5.0 0.00 0.00 0.00 70 1017.9
20260830214017 82 225 1.0 4.0 0.00 0.00 0.00 70 1018.1
20260830213517 82 203 3.0 5.0 0.00 0.00 0.00 70 1018.0
20260830213018 82 270 3.0 6.0 0.00 0.00 0.00 70 1018.0
20260830212538 82 315 2.0 4.0 0.00 0.00 0.00 70 1017.9
20260830212017 82 270 2.0 6.0 0.00 0.00 0.00 70 1018.0
20260830211518 82 270 2.0 4.0 0.00 0.00 0.00 70 1018.1
20260830211017 82 293 3.0 7.0 0.00 0.00 0.00 70 1018.1
20260830210537 82 270 2.0 6.0 0.00 0.00 0.00 69 1018.1
20260830210017 82 248 2.0 5.0 0.00 0.00 0.00 70 1018.2
20260830205537 82 248 2.0 7.0 0.00 0.00 0.00 70 1018.2
20260830205038 82 293 3.0 7.0 0.00 0.00 0.00 70 1018.2
20260830204518 82 338 3.0 7.0 0.00 0.00 0.00 70 1018.2
20260830204017 82 293 4.0 8.0 0.00 0.00 0.00 69 1018.2
20260830203518 82 248 3.0 8.0 0.00 0.00 0.00 69 1018.2
20260830203016 82 248 5.0 10.0 0.00 0.00 0.00 69 1018.3
20260830202517 82 225 4.0 10.0 0.00 0.00 0.00 70 1018.4
20260830202037 82 248 4.0 9.0 0.00 0.00 0.00 70 1018.5
20260830201517 82 248 2.0 9.0 0.00 0.00 0.00 71 1018.4
20260830201016 82 270 3.0 8.0 0.00 0.00 0.00 70 1018.5
20260830200517 81 225 3.0 7.0 0.00 0.00 0.00 71 1018.4
20260830200017 81 225 4.0 10.0 0.00 0.00 0.00 72 1018.6
20260830195517 80 225 3.0 7.0 0.00 0.00 0.00 73 1018.6
20260830195017 80 225 2.0 5.0 0.00 0.00 0.00 74 1018.6
20260830194517 80 225 4.0 8.0 0.00 0.00 0.00 74 1018.8
20260830194037 80 248 2.0 8.0 0.00 0.00 0.00 75 1018.8
20260830193517 80 248 1.0 5.0 0.00 0.00 0.00 75 1018.9
20260830193017 80 225 3.0 4.0 0.00 0.00 0.00 74 1018.9
20260830192517 80 225 1.0 4.0 0.00 0.00 0.00 75 1018.9
20260830192018 80 225 1.0 3.0 0.00 0.00 0.00 75 1019.0
20260830191517 80 225 2.0 3.0 0.00 0.00 0.00 74 1019.1
20260830191017 80 225 2.0 4.0 0.00 0.00 0.00 73 1019.1
20260830190517 80 225 1.0 4.0 0.00 0.00 0.00 74 1019.3
20260830190017 80 225 2.0 5.0 0.00 0.00 0.00 70 1019.4
20260830185517 80 225 1.0 4.0 0.00 0.00 0.00 70 1019.4
20260830185017 80 0.0 3.0 0.00 0.00 0.00 70 1019.7
20260830184517 80 203 1.0 5.0 0.00 0.00 0.00 70 1019.7
20260830184017 80 158 1.0 4.0 0.00 0.00 0.00 70 1019.7
20260830183516 80 158 2.0 6.0 0.00 0.00 0.00 71 1019.7
20260830183018 79 225 2.0 6.0 0.00 0.00 0.00 71 1019.7
20260830182600 79 203 2.0 8.0 0.00 0.00 0.00 71 1019.8
20260830182018 79 225 4.0 9.0 0.00 0.00 0.00 71 1020.0
20260830181517 79 225 3.0 7.0 0.00 0.00 0.00 71 1020.0
20260830181017 79 225 3.0 6.0 0.00 0.00 0.00 70 1020.0
20260830180517 80 225 4.0 7.0 0.00 0.00 0.00 70 1020.1
20260830180017 80 225 4.0 9.0 0.00 0.00 0.00 69 1020.1
20260830175518 80 203 4.0 7.0 0.00 0.00 0.00 70 1020.2
20260830175016 80 225 4.0 9.0 0.00 0.00 0.00 69 1020.2
20260830174517 80 225 5.0 11.0 0.00 0.00 0.00 68 1020.3
20260830174037 80 248 4.0 9.0 0.00 0.00 0.00 68 1020.4
20260830173539 80 225 4.0 7.0 0.00 0.00 0.00 67 1020.4
20260830173016 80 225 2.0 6.0 0.00 0.00 0.00 67 1020.5
20260830172538 80 203 4.0 8.0 0.00 0.00 0.00 66 1020.5
20260830172016 81 203 4.0 10.0 0.00 0.00 0.00 65 1020.5
20260830171538 81 225 2.0 6.0 0.00 0.00 0.00 64 1020.6
20260830171017 81 225 5.0 10.0 0.00 0.00 0.00 64 1020.6
20260830170516 82 225 4.0 11.0 0.00 0.00 0.00 64 1020.6
20260830170037 81 203 3.0 7.0 0.00 0.00 0.00 65 1020.6
20260830165518 81 225 3.0 8.0 0.00 0.00 0.00 65 1020.7
20260830165016 80 248 5.0 13.0 0.00 0.00 0.00 67 1020.7
20260830164516 79 248 3.0 7.0 0.00 0.00 0.00 69 1020.8
20260830164037 78 225 4.0 12.0 0.00 0.00 0.00 69 1020.9
20260830163516 78 225 4.0 8.0 0.00 0.00 0.00 70 1020.9
20260830163016 78 225 3.0 8.0 0.00 0.00 0.00 71 1020.9
20260830162516 77 225 4.0 8.0 0.00 0.00 0.00 71 1021.0
20260830162017 78 225 5.0 9.0 0.00 0.00 0.00 71 1021.2
20260830161517 78 225 5.0 10.0 0.00 0.00 0.00 71 1021.2
20260830161017 78 203 3.0 11.0 0.00 0.00 0.00 70 1021.1
20260830160536 78 225 5.0 8.0 0.00 0.00 0.00 69 1021.3
20260830160037 78 225 6.0 10.0 0.00 0.00 0.00 68 1021.3
20260830155516 79 225 5.0 12.0 0.00 0.00 0.00 68 1021.3
20260830155037 79 225 6.0 11.0 0.00 0.00 0.00 67 1021.3
20260830154618 78 225 7.0 15.0 0.00 0.00 0.00 67 1021.4
20260830154016 78 225 4.0 10.0 0.00 0.00 0.00 69 1021.3
20260830153516 77 225 5.0 12.0 0.00 0.00 0.00 69 1021.3
20260830153016 77 225 6.0 13.0 0.00 0.00 0.00 69 1021.5
20260830152516 77 225 7.0 13.0 0.00 0.00 0.00 69 1021.8
20260830152016 77 225 6.0 12.0 0.00 0.00 0.00 69 1021.8
20260830151516 77 225 4.0 10.0 0.00 0.00 0.00 70 1021.9
20260830151016 77 203 4.0 12.0 0.00 0.00 0.00 70 1021.8
20260830150516 77 225 5.0 10.0 0.00 0.00 0.00 69 1021.8
20260830150018 77 225 5.0 12.0 0.00 0.00 0.00 68 1021.8
20260830145517 77 225 4.0 10.0 0.00 0.00 0.00 68 1021.9
20260830145017 77 203 3.0 7.0 0.00 0.00 0.00 67 1021.9
20260830144517 78 225 3.0 7.0 0.00 0.00 0.00 67 1022.0
20260830144016 77 225 2.0 7.0 0.00 0.00 0.00 67 1022.0
20260830143518 77 225 4.0 9.0 0.00 0.00 0.00 67 1022.1
20260830143016 77 225 5.0 11.0 0.00 0.00 0.00 66 1022.0
20260830142517 77 225 6.0 13.0 0.00 0.00 0.00 64 1022.0
20260830142017 77 225 5.0 10.0 0.00 0.00 0.00 64 1022.0
20260830141517 77 225 5.0 11.0 0.00 0.00 0.00 65 1022.0
20260830141016 77 225 4.0 11.0 0.00 0.00 0.00 66 1022.1
20260830140516 77 225 2.0 5.0 0.00 0.00 0.00 67 1022.0
20260830140017 76 225 3.0 6.0 0.00 0.00 0.00 66 1022.1
20260830135517 76 225 2.0 7.0 0.00 0.00 0.00 67 1022.3
20260830135038 75 225 4.0 8.0 0.00 0.00 0.00 67 1022.3
20260830134536 75 225 2.0 8.0 0.00 0.00 0.00 67 1022.4
20260830134037 75 225 3.0 9.0 0.00 0.00 0.00 68 1022.5
20260830133516 75 203 3.0 8.0 0.00 0.00 0.00 69 1022.6
20260830133037 74 225 4.0 9.0 0.00 0.00 0.00 69 1022.7
20260830132517 74 225 4.0 9.0 0.00 0.00 0.00 69 1022.8
20260830132016 74 225 4.0 9.0 0.00 0.00 0.00 69 1022.8
20260830131517 74 225 4.0 8.0 0.00 0.00 0.00 70 1022.7
20260830131016 73 225 4.0 8.0 0.00 0.00 0.00 71 1022.8
20260830130516 73 225 4.0 8.0 0.00 0.00 0.00 72 1022.8
20260830130017 73 225 2.0 4.0 0.00 0.00 0.00 73 1022.8
20260830125516 72 225 3.0 9.0 0.00 0.00 0.00 73 1022.8
20260830125017 72 225 4.0 7.0 0.00 0.00 0.00 72 1022.8
20260830124516 72 248 3.0 7.0 0.00 0.00 0.00 70 1022.9
20260830124016 71 225 4.0 8.0 0.00 0.00 0.00 70 1022.9
20260830123516 71 225 4.0 8.0 0.00 0.00 0.00 71 1023.0
20260830123016 71 225 2.0 5.0 0.00 0.00 0.00 72 1023.0
20260830122516 71 248 2.0 7.0 0.00 0.00 0.00 73 1023.0
20260830122016 71 248 2.0 7.0 0.00 0.00 0.00 75 1023.0
20260830121516 70 248 3.0 6.0 0.00 0.00 0.00 75 1023.0
20260830121016 70 203 2.0 4.0 0.00 0.00 0.00 75 1022.9
20260830120516 70 225 1.0 4.0 0.00 0.00 0.00 75 1022.9
20260830120017 69 315 1.0 3.0 0.00 0.00 0.00 75 1022.9
20260830115516 69 315 2.0 3.0 0.00 0.00 0.00 75 1022.8
20260830115017 69 315 1.0 3.0 0.00 0.00 0.00 76 1022.8
20260830114537 69 315 1.0 3.0 0.00 0.00 0.00 76 1022.8
20260830114036 69 315 1.0 4.0 0.00 0.00 0.00 77 1022.8
20260830113516 69 315 1.0 4.0 0.00 0.00 0.00 76 1022.9
20260830113016 69 315 2.0 3.0 0.00 0.00 0.00 75 1022.9
20260830112517 69 315 1.0 3.0 0.00 0.00 0.00 74 1022.9
20260830112016 68 0.0 0.0 0.00 0.00 0.00 74 1022.8
20260830111537 68 0.0 0.0 0.00 0.00 0.00 74 1022.8
20260830111017 68 0.0 0.0 0.00 0.00 0.00 74 1022.7
20260830110517 68 0.0 0.0 0.00 0.00 0.00 74 1022.7
20260830110017 68 0.0 0.0 0.00 0.00 0.00 74 1022.7
20260830105516 68 0.0 0.0 0.00 0.00 0.00 74 1022.7
20260830105016 68 0.0 0.0 0.00 0.00 0.00 74 1022.7
20260830104516 68 0.0 0.0 0.00 0.00 0.00 74 1022.6
20260830104016 68 0.0 0.0 0.00 0.00 0.00 74 1022.5
20260830103516 68 0.0 0.0 0.00 0.00 0.00 73 1022.5
20260830103016 69 0.0 0.0 0.00 0.00 0.00 73 1022.5
20260830102516 69 0.0 0.0 0.00 0.00 0.00 73 1022.6
20260830102016 68 0.0 0.0 0.00 0.00 0.00 73 1022.5
20260830101516 68 0.0 1.0 0.00 0.00 0.00 73 1022.6
20260830101016 68 248 1.0 3.0 0.00 0.00 0.00 73 1022.6
20260830100516 68 270 1.0 3.0 0.00 0.00 0.00 74 1022.6
20260830100017 68 270 3.0 6.0 0.00 0.00 0.00 75 1022.6
20260830095537 68 293 2.0 4.0 0.00 0.00 0.00 76 1022.7
20260830095016 68 0.0 2.0 0.00 0.00 0.00 76 1022.6
20260830094516 68 0.0 3.0 0.00 0.00 0.00 77 1022.6
20260830094017 68 0.0 2.0 0.00 0.00 0.00 77 1022.7
20260830093516 67 0.0 1.0 0.00 0.00 0.00 77 1022.7
20260830093016 67 0.0 1.0 0.00 0.00 0.00 77 1022.7
20260830092517 68 0.0 1.0 0.00 0.00 0.00 77 1022.7
20260830092016 68 0.0 1.0 0.00 0.00 0.00 77 1022.7
20260830091516 68 0.0 0.0 0.00 0.00 0.00 77 1022.6
20260830091016 67 0.0 0.0 0.00 0.00 0.00 78 1022.6
20260830090516 67 0.0 0.0 0.00 0.00 0.00 78 1022.6
20260830090015 67 0.0 3.0 0.00 0.00 0.00 79 1022.6
20260830085538 67 293 2.0 6.0 0.00 0.00 0.00 80 1022.6
20260830085015 67 248 1.0 4.0 0.00 0.00 0.00 82 1022.6
20260830084516 67 0.0 2.0 0.00 0.00 0.00 82 1022.7
20260830084017 67 248 1.0 2.0 0.00 0.00 0.00 82 1022.7
20260830083516 67 248 1.0 3.0 0.00 0.00 0.00 83 1022.9
20260830083035 67 248 1.0 3.0 0.00 0.00 0.00 83 1022.9
20260830082515 67 248 1.0 3.0 0.00 0.00 0.00 83 1022.8
20260830082016 67 248 2.0 6.0 0.00 0.00 0.00 84 1022.8
20260830081517 67 203 1.0 3.0 0.00 0.00 0.00 84 1022.8
20260830081016 67 203 2.0 4.0 0.00 0.00 0.00 84 1022.9
20260830080516 67 248 2.0 6.0 0.00 0.00 0.00 83 1023.0
20260830080016 67 248 2.0 4.0 0.00 0.00 0.00 83 1023.0
20260830075516 67 248 1.0 2.0 0.00 0.00 0.00 83 1023.0
20260830075015 67 248 1.0 2.0 0.00 0.00 0.00 83 1022.9
20260830074516 67 0.0 2.0 0.00 0.00 0.00 83 1023.0
20260830074016 68 0.0 1.0 0.00 0.00 0.00 82 1023.0
20260830073515 68 248 1.0 3.0 0.00 0.00 0.00 82 1023.1
20260830073016 68 248 1.0 3.0 0.00 0.00 0.00 82 1023.0
20260830072516 68 225 1.0 4.0 0.00 0.00 0.00 81 1023.1
20260830072036 68 225 2.0 4.0 0.00 0.00 0.00 81 1023.2
20260830071516 68 225 1.0 4.0 0.00 0.00 0.00 81 1023.1
20260830071035 68 225 1.0 5.0 0.00 0.00 0.00 81 1023.1
20260830070516 68 203 1.0 2.0 0.00 0.00 0.00 81 1023.1
20260830070015 68 0.0 2.0 0.00 0.00 0.00 81 1023.1
20260830065536 68 203 1.0 4.0 0.00 0.00 0.00 80 1023.1
20260830065016 68 225 2.0 5.0 0.00 0.00 0.00 80 1023.1
20260830064516 68 225 1.0 5.0 0.00 0.00 0.00 80 1023.0
20260830064037 68 225 1.0 3.0 0.00 0.00 0.00 79 1023.0
20260830063516 69 225 1.0 4.0 0.00 0.00 0.00 79 1023.1
20260830063015 69 0.0 2.0 0.00 0.00 0.00 79 1023.1
20260830062515 69 0.0 2.0 0.00 0.00 0.00 78 1023.0
20260830062016 69 0.0 2.0 0.00 0.00 0.00 78 1023.1
20260830061515 69 225 1.0 3.0 0.00 0.00 0.00 78 1023.1
20260830061037 69 248 1.0 3.0 0.00 0.00 0.00 78 1023.1
20260830060515 69 248 1.0 2.0 0.00 0.00 0.00 78 1023.0
20260830060015 69 248 2.0 7.0 0.00 0.00 0.00 78 1023.1
20260830055516 69 270 3.0 7.0 0.00 0.00 0.00 78 1023.1
20260830055017 69 248 3.0 5.0 0.00 0.00 0.00 78 1023.1
20260830054537 69 248 3.0 9.0 0.00 0.00 0.00 77 1023.0
20260830054015 69 203 2.0 6.0 0.00 0.00 0.00 77 1023.0
20260830053515 69 225 2.0 5.0 0.00 0.00 0.00 77 1022.9
20260830053016 69 203 2.0 5.0 0.00 0.00 0.00 77 1022.9
20260830052516 69 225 2.0 5.0 0.00 0.00 0.00 77 1023.0
20260830052015 70 203 2.0 4.0 0.00 0.00 0.00 76 1022.9
20260830051515 70 225 3.0 5.0 0.00 0.00 0.00 76 1023.0
20260830051036 70 248 4.0 8.0 0.00 0.00 0.00 76 1022.9
20260830050517 70 225 3.0 6.0 0.00 0.00 0.00 76 1022.9
20260830050016 70 225 4.0 7.0 0.00 0.00 0.00 76 1023.0
20260830045515 70 225 2.0 5.0 0.00 0.00 0.00 76 1022.9
20260830045015 70 225 3.0 6.0 0.00 0.00 0.00 76 1022.9
20260830044517 70 248 2.0 7.0 0.00 0.00 0.00 75 1022.8
20260830044016 70 225 3.0 5.0 0.00 0.00 0.00 75 1022.8
20260830043515 70 225 3.0 6.0 0.00 0.00 0.00 75 1022.8
20260830043015 70 225 3.0 7.0 0.00 0.00 0.00 75 1022.7
20260830042516 70 225 3.0 6.0 0.00 0.00 0.00 75 1022.8
20260830042015 70 225 3.0 7.0 0.00 0.00 0.00 74 1022.8
20260830041515 70 225 3.0 7.0 0.00 0.00 0.00 74 1022.7
20260830041017 70 225 4.0 8.0 0.00 0.00 0.00 73 1022.7
20260830040515 70 225 4.0 7.0 0.00 0.00 0.00 73 1022.7
20260830040016 71 225 4.0 8.0 0.00 0.00 0.00 72 1022.6
20260830035516 71 225 4.0 9.0 0.00 0.00 0.00 72 1022.7
20260830035016 71 225 3.0 6.0 0.00 0.00 0.00 71 1022.7
20260830034516 71 225 3.0 5.0 0.00 0.00 0.00 70 1022.7
20260830034036 71 225 3.0 4.0 0.00 0.00 0.00 69 1022.7
20260830033537 71 225 4.0 7.0 0.00 0.00 0.00 69 1022.8
20260830033016 71 225 4.0 8.0 0.00 0.00 0.00 68 1022.8
20260830032516 71 225 2.0 4.0 0.00 0.00 0.00 67 1022.8
20260830032036 72 248 1.0 4.0 0.00 0.00 0.00 68 1022.7
20260830031515 72 203 2.0 5.0 0.00 0.00 0.00 68 1022.5
20260830031016 72 248 2.0 7.0 0.00 0.00 0.00 68 1022.5
20260830030516 72 248 2.0 5.0 0.00 0.00 0.00 68 1022.5
20260830030016 72 248 2.0 4.0 0.00 0.00 0.00 69 1022.6
20260830025516 72 248 2.0 5.0 0.00 0.00 0.00 68 1022.5
20260830025017 73 248 2.0 4.0 0.00 0.00 0.00 68 1022.6
20260830024536 73 248 3.0 5.0 0.00 0.00 0.00 68 1022.5
20260830024017 73 225 2.0 5.0 0.00 0.00 0.00 66 1022.5
20260830023516 73 225 2.0 4.0 0.00 0.00 0.00 63 1022.6
20260830023017 74 225 3.0 6.0 0.00 0.00 0.00 61 1022.6
20260830022516 74 225 2.0 5.0 0.00 0.00 0.00 58 1022.6
20260830022016 74 225 2.0 6.0 0.00 0.00 0.00 54 1022.6
20260830021516 74 203 2.0 3.0 0.00 0.00 0.00 51 1022.5
20260830021016 74 270 2.0 4.0 0.00 0.00 0.00 51 1022.5
20260830020516 74 248 3.0 6.0 0.00 0.00 0.00 51 1022.4
20260830020016 74 248 2.0 4.0 0.00 0.00 0.00 51 1022.6
20260830015517 75 270 2.0 4.0 0.00 0.00 0.00 51 1022.6
20260830015015 75 248 3.0 5.0 0.00 0.00 0.00 51 1022.5
20260830014516 75 270 3.0 6.0 0.00 0.00 0.00 51 1022.4
20260830014016 75 270 2.0 5.0 0.00 0.00 0.00 51 1022.5
20260830013515 75 270 2.0 6.0 0.00 0.00 0.00 52 1022.5
20260830013037 75 270 3.0 6.0 0.00 0.00 0.00 52 1022.5
20260830012515 75 270 2.0 6.0 0.00 0.00 0.00 52 1022.5
20260830012016 75 248 1.0 3.0 0.00 0.00 0.00 52 1022.3
20260830011515 75 293 2.0 6.0 0.00 0.00 0.00 52 1022.3
20260830011017 74 270 2.0 6.0 0.00 0.00 0.00 52 1022.2
20260830010515 74 225 1.0 4.0 0.00 0.00 0.00 52 1022.1
20260830010015 74 225 1.0 4.0 0.00 0.00 0.00 53 1022.0
20260830005517 74 315 1.0 4.0 0.00 0.00 0.00 53 1022.0
20260830005015 74 315 1.0 3.0 0.00 0.00 0.00 53 1021.9
20260830004515 74 315 1.0 3.0 0.00 0.00 0.00 54 1021.9
20260830004016 74 0.0 2.0 0.00 0.00 0.00 55 1021.8
20260830003515 74 315 1.0 3.0 0.00 0.00 0.00 56 1021.8
20260830003016 74 315 1.0 3.0 0.00 0.00 0.00 56 1021.8
20260830002515 75 0.0 1.0 0.00 0.00 0.00 58 1021.8